Regional Weather Roundup
Issued by NWS Wakefield, VA

Home | Current Version | Previous Version | Text Only | Print | Product List | Glossary Off
Versions: 1 2 3 4 5 6 7 8 9 10 11 12 13 14 15 16 17 18 19 20 21 22 23 24 25 26

945
ASUS41 KAKQ 212215
RWRAKQ

REGIONAL WEATHER ROUNDUP
NATIONAL WEATHER SERVICE WAKEFIELD VA
600 PM EDT THU MAY 21 2015

Note: "fair" indicates few or no clouds below 12,000 feet with no
significant weather and/or obstructions to visibility. * = Denotes
station may not report precipitation (e.g., rain,snow,etc.),
thunder or fog.

VAZ042-051-052>054-056-212300-
NORTHERN VIRGINIA

CITY           SKY/WX    TMP DP  RH WIND       PRES   REMARKS
WASH NATIONAL  CLOUDY    55  48  77 NE8       29.93S
DULLES         CLOUDY    53  49  86 NE5       29.92F
FORT BELVOIR   CLOUDY    54  51  90 CALM      29.92S
QUANTICO       CLOUDY    55  50  83 N8        29.93R
FREDERICKSBRG* CLOUDY    56  55  97 N5        29.91S
STAFFORD*      CLOUDY    53  50  90 N6        29.96S
WARRENTON      CLOUDY    55  53  92 NE5       29.92S
CULPEPER*      CLOUDY    53  51  91 CALM      29.93S
MANASSAS*      CLOUDY    54  52  94 CALM      29.93S
LEESBURG*      CLOUDY    54  52  94 S3        29.94S
WINCHESTER     CLOUDY    55  46  71 CALM      29.92R
FRONT ROYAL*   CLOUDY    54  50  87 CALM      29.91R
LURAY*         CLOUDY    57  52  82 CALM      29.92R
$$

VAZ048-049-060>072-079>083-212300-
CENTRAL AND SOUTH CENTRAL VIRGINIA

CITY           SKY/WX    TMP DP  RH WIND       PRES   REMARKS
RICHMOND       CLOUDY    58  53  84 NE10      29.88R
CHESTERFIELD*  NOT AVBL
PETERSBURG*    CLOUDY    59  56  90 N6        29.89R
HANOVER        CLOUDY    56  54  93 N3        29.91R
TAPPAHANNOCK*  CLOUDY    56  51  84 N5        29.89S
QUINTON*       CLOUDY    56  55  93 N6        29.87R
CHARLOTTSVILLE CLOUDY    54  51  90 NE3       29.92R
GORDONSVILLE*  CLOUDY    53  51  92 NE3       29.92S
ORANGE*        CLOUDY    55  52  88 CALM      29.93S
LOUISA*        CLOUDY    55  54  94 NE3       29.90S
BUMPASS*       CLOUDY    54  52  94 N3        29.91R
FARMVILLE*     CLOUDY    58  58  99 CALM      29.89R
CREWE*         CLOUDY    57  55  91 NE3       29.89R
FORT PICKETT*  CLOUDY    57  55  94 N6        29.89R
CHASE CITY*    CLOUDY    61  60  97 N6        29.88S
CLARKSVILLE*   CLOUDY    59  55  88 N9        29.87R
SOUTH HILL*    CLOUDY    59  56  91 N10       29.93R
LAWRENCEVILLE* CLOUDY    57  55  94 N7        29.87R
EMPORIA*       CLOUDY    59  55  88 NW9       29.88R
$$

VAZ088>098-212300-
SOUTHEAST VIRGINIA

CITY           SKY/WX    TMP DP  RH WIND       PRES   REMARKS
NORFOLK        CLOUDY    61  58  90 N18G25    29.80R
VIRGINIA BEACH LGT RAIN  63  60  90 N22G31    29.77S FOG
NORFOLK NAVAL  CLOUDY    65  58  78 N21G30    29.83R
WEST POINT*    CLOUDY    59  56  89 N6        29.87S
SALUDA*        CLOUDY    56  55  94 NE6       29.85F
NEWPORT NEWS   LGT RAIN  63  57  81 NE8G22    29.83S
LANGLEY AFB    CLOUDY    59  57  92 NE15G24   29.82S
FORT EUSTIS    CLOUDY    59  59 100 NE9       29.81F
WILLIAMSBURG*  PTSUNNY   61  61 100 NE6       29.85S
HR EXEC AP*    CLOUDY    61  57  88 N7G16     29.82S
FRANKLIN*      CLOUDY    60  58  93 N9G18     29.84R
WAKEFIELD      CLOUDY    60  56  86 NE8       29.84R
$$

VAZ020-022-025-037-045-212300-
WEST CENTRAL AND SOUTHWEST VIRGINIA

CITY           SKY/WX    TMP DP  RH WIND       PRES   REMARKS
STAUNTON*      LGT RAIN  56  51  83 CALM      29.93S
WAYNESBORO*    CLOUDY    53  51  92 CALM      29.91S
HOT SPRINGS VA FOG       52  52 100 W15G22    29.91S VSB 1/4
LYNCHBURG      CLOUDY    57  54  89 NE6       29.91S
DANVILLE       CLOUDY    66  57  72 MISG      29.88S
SOUTH BOSTON*  CLOUDY    60  56  86 N5        29.88S
MARTINSVILLE   CLOUDY    71  60  70 E5        29.88S
ROANOKE        PTSUNNY   66  57  72 VRB5      29.90S
BLACKSBURG     CLOUDY    61  50  69 NW9G20    29.96R
DUBLIN*        CLOUDY    64  53  65 NW12G17   29.95S
MARION*        PTSUNNY   62  50  65 W12G28    29.98S
HILLSVILLE*    PTSUNNY   64  52  65 NW18G26   29.93S
RICHLANDS*     CLOUDY    53  51  91 NW9G17    30.01R
WISE*          DRIZZLE   52  50  93 NW9       30.04F
ABINGDON*      PTSUNNY   65  49  56 NW12G23   29.99S
$$

MDZ021>025-VAZ099-100-212300-
SOUTHERN MARYLAND AND THE DELMARVA PENINSULA

CITY           SKY/WX    TMP DP  RH WIND       PRES   REMARKS
PATUXENT RIVER CLOUDY    53  51  93 NE12      29.89S
BAY BRIDGE APT   N/A    N/A N/A N/A NE3       29.92S
LEONARDTOWN    CLOUDY    52  50  93 NE5       29.91S
DOVER          LGT RAIN  52  52 100 N7        29.88S
GEORGETOWN     RAIN      52  51  97 E8        29.90F FOG
EASTON         DRIZZLE   52  52 100 NE3       29.95S
CAMBRIDGE      CLOUDY    52  50  93 NE6       29.89F
SALISBURY      RAIN      52  51  97 NE8       29.89F FOG
OCEAN CITY     LGT RAIN  52  49  89 NE12      29.88F
WALLOPS ISLAND HVY RAIN  53  52  96 N15       29.88R FOG
ACCOMACK*      HVY RAIN  54  54 100 NE10      29.85F
$$

NCZ012>017-030>032-212300-
NORTH CENTRAL AND EASTERN NORTH CAROLINA

CITY           SKY/WX    TMP DP  RH WIND       PRES   REMARKS
ROANOKE RAPIDS CLOUDY    61  57  88 N10       29.86R
RALEIGH        PTSUNNY   65  58  78 N8G20     29.86R
ELIZABETH CITY LGT RAIN  69  67  93 SW14      29.76R
AHOSKIE*       CLOUDY    60  58  91 N7        29.84R
EDENTON*       CLOUDY    65  63  93 N15       29.78R
CURRITUCK*     CLOUDY    71  68  89 SW9       29.75R
KILL DEVIL HLS RAIN      73  70  89 S6        29.75S
MANTEO         RAIN      74  72  92 S14       29.76S
CAPE HATTERAS  MOSUNNY   75  71  87 S9        29.77R
TARBORO*       CLOUDY    64  59  86 NW8       29.85R
GOLDSBORO      CLOUDY    68  63  84 NW9       29.82R
WASHINGTON     RAIN     N/A N/A N/A N8        29.80R
GREENVILLE     CLOUDY    63  61  94 N8        29.85R
NEW BERN       HVY RAIN  72  68  87 W12       29.79R FOG
WILMINGTON     CLOUDY    75  71  87 SW7       29.78S
$$

VAZ048-212300-
ELSEWHERE

CITY           SKY/WX    TMP DP  RH WIND       PRES   REMARKS
HARRISBURG PA  CLOUDY    58  41  53 CALM      29.91S
BALTIMORE      CLOUDY    52  48  86 N6        29.92F
ANNAPOLIS      CLOUDY    53  49  86 N5        29.92S
ANDREWS AFB    CLOUDY    52  50  93 N7        29.91S
PHILADELPHIA   CLOUDY    52  46  80 NE3       29.94F
HENDERSON NC   CLOUDY    60  56  85 N6        29.88R
GREENSBORO     MOSUNNY   69  60  73 E6        29.85S
ROCKY MOUNT    CLOUDY    64  59  83 N14       29.86R
$$

VAZ100-212300-
MARINE

STATION/POSITION TIME  TEMP    WIND        PRES    WAVE   SWELL
                       AIR SEA DIR/SP/G            HT/PER HT/PER
                 (UTC) (F)     (DEG/KT/KT) (MB)    (FT/S) (FT/S)
BRANDYWINE LGT   2100   52 63   70/ 12/ 13 1013.3F
CAPE MAY NJ      2100   51 67   40/  3/  4 1013.1F
LEWES DE         2100   53 64   40/ 13/ 15 1013.3F
15NM E FENWICK I 2150   53 59              1011.8F   2/ 3
OCEAN-CITY-INLET 2100   53 60   40/  7/ 12 1012.1F
WACHAPREAGUE VA  2100   56 68   40/ 16/ 23 1010.5F
THOMAS POINT MD  2200   52 66   40/  8/  9 1013.6F
GOOSES REEF MD   2200   54 67   50/ 10/ 12 1013.8R   0
COVE POINT MD    2100   51      60/ 12/ 14 1013.2F
BISHOPS HEAD MD  2100   53 63   40/ 13/ 16 1011.9F
PINEY POINT MD   2100           70/  9/ 11   N/A
CAMBRIDGE MD     2100   52 71   40/  9/ 11 1012.5F
LEWISETTA VA     2100   55 70              1011.7F
RAPPAHANNOCK LGT 2100           30/ 20/ 22 1011.1F
STINGRAY PT      2200   59 70   50/ 19/ 23 1010.1F   3/ 3
YORK RVR RNG VA  2100   60      30/ 21/ 24 1009.4S
YORKTOWN VA      2100   59 71   30/ 15/ 17 1010.1R
JAMESTOWN VA     2200   58 75   50/  8/ 14 1009.4F
DOMINION TERM VA 2100   60      40/ 11/ 19 1009.3R
KIPTOPEKE VA     2100      74   40/ 12/ 19   N/A
CHES BAY BRIDGE  2100   61 66   20/ 24/ 28 1007.4F
CAPE HENRY VA    2100   63      20/ 19/ 21 1007.0F
CHESAPEAKE LGHT  2100   68     140/ 14/ 18 1008.1R
WILLOUBY STN VA  2100   59      10/ 21/ 24 1009.9R
CAPE HENRY BUOY  2128      66                N/A     4/ 4
1ST LANDING BUOY 2200      64              1008.5R
CAPE CHARLES BUO 2126      66                N/A     4/ 5   2/ 9
OFFSHORE WE BUOY 2111      64                N/A     4/ 4   2/ 9
64NM E OF VA BCH 2150   66 62  140/ 14/ 16 1007.6F   3/ 9   2/ 9
DUCK PIER NC     2100   70 68  140/ 17/ 21 1005.9F
44100 DUCK FRF   2124      67                N/A     3/ 4
44056 DUCK FRF   2111      68                N/A     4/ 4
OREGON INLET NC  2100   74 70  130/  7/ 15 1007.5F
HATTERAS NC      2100   77 73  160/  7/ 12 1007.0F
DIAMOND SHLS NC  2150   77 77  180/ 16/ 17 1008.2R   4/ 5   2/ 8
CAPE LOOKOUT NC  2200   77     190/ 13/ 15 1007.5R
$$



USA.gov is the U.S. government's official web portal to all federal, state and local government web resources and services.